Wind_Speed
13 12 2 2 6 5 5 3 2 5 6 8 11 14 16 17 19 20 24 24 28 30
7 7 7 9 4 4 6 6 4 1 2 2 3 5 7 12 11 14 12 15 14 13
14 14 14 12 8 5 6 6 5 4 2 2 3 4 6 7 10 12 15 14 14 16
11 9 9 9 8 7 8 8 8 7 7 8 8 10 12 13 15 15 15 16 17 17
11 11 12 13 14 15 14 13 13 11 10 11 10 11 12 13 14 16 17 20 22 21
10 11 12 12 13 13 14 15 15 13 12 13 14 15 15 15 16 16 16 16 17 18
11 13 14 15 14 14 14 14 14 15 16 16 15 14 17 17 18 18 17 16 16 16
15 17 17 17 17 17 18 18 18 18 16 15 15 13 18 18 17 17 17 16 17 18
16 18 19 19 20 20 20 18 17 16 16 15 15 14 15 18 18 17 17 18 19 20
17 18 19 20 20 19 18 17 16 16 16 15 15 15 15 15 17 18 18 16 16 17
17 18 19 18 16 16 17 17 17 16 16 16 15 16 15 15 15 15 15 15 15 17
18 19 18 15 15 15 16 16 16 16 16 16 16 15 15 17 19 18 17 14 13 16
19 17 14 14 15 16 16 17 16 16 16 17 17 14 14 14 18 20 19 19 19 17
16 14 14 15 16 17 19 19 18 18 16 16 14 15 15 15 17 21 24 24 25 21
Wind_Direction
318 322 216 65 72 20 195 201 217 223 238 250 257 261 266 270 273 269 269 273 269 267
59 50 49 56 73 73 74 90 104 171 209 251 275 277 285 277 277 269 270 267 261 277
57 49 47 41 39 24 34 35 33 23 35 30 319 306 299 303 302 295 299 291 294 292
43 41 32 33 36 24 10 16 12 0 336 319 306 305 305 304 298 294 301 304 311 307
12 8 360 354 353 353 348 345 345 342 336 326 316 314 307 306 304 303 301 292 296 301
356 353 351 349 343 338 336 334 334 329 323 322 323 320 310 306 307 305 303 304 302 297
348 344 341 340 339 338 338 333 331 331 329 325 323 318 309 310 311 308 309 307 306 301
339 338 337 337 339 339 336 334 331 329 327 324 324 317 313 316 314 317 316 314 310 307
329 333 335 336 335 333 332 332 334 334 332 330 327 320 315 317 318 320 318 316 314 315
325 330 331 331 330 331 334 335 335 334 331 330 329 323 317 313 314 320 320 320 322 324
321 325 326 327 330 331 333 335 335 334 333 331 332 327 322 319 319 322 325 329 331 327
318 319 320 323 326 328 328 330 330 332 333 333 340 343 335 323 325 325 323 317 304 295
315 317 319 321 325 328 329 329 331 333 337 338 332 326 319 315 314 315 316 308 311 302
312 315 319 323 326 325 328 330 329 324 321 319 320 314 315 317 314 316 319 316 318 323
Height
1456 1452 1452 1452 1449 1450 1450 1447 1448 1452 1453 1454 1453 1455 1458 1459 1460 1460 1460 1459 1459 1459
1456 1456 1453 1450 1451 1453 1456 1454 1452 1451 1453 1451 1452 1454 1454 1455 1455 1455 1454 1453 1453 1453
1462 1460 1458 1457 1457 1458 1457 1454 1452 1451 1449 1450 1452 1453 1453 1453 1452 1451 1451 1449 1448 1448
1465 1463 1462 1461 1461 1460 1457 1453 1451 1450 1450 1450 1450 1451 1450 1450 1449 1448 1448 1447 1446 1443
1468 1465 1462 1461 1459 1455 1452 1451 1450 1450 1450 1450 1451 1449 1447 1447 1446 1444 1443 1441 1441 1440
1468 1467 1465 1463 1461 1459 1456 1453 1451 1451 1451 1448 1445 1443 1443 1443 1442 1440 1440 1437 1436 1434
1467 1465 1463 1462 1459 1457 1455 1453 1451 1447 1445 1443 1443 1441 1440 1438 1437 1437 1435 1433 1432 1431
1465 1463 1461 1458 1455 1452 1450 1447 1445 1443 1442 1440 1439 1438 1436 1435 1434 1431 1429 1428 1427 1426
1464 1462 1459 1456 1453 1450 1447 1445 1443 1442 1440 1438 1437 1436 1434 1431 1429 1428 1426 1423 1422 1421
1460 1458 1455 1453 1450 1448 1446 1444 1442 1440 1438 1436 1435 1433 1431 1428 1426 1424 1422 1420 1418 1416
1455 1453 1450 1448 1446 1444 1442 1440 1438 1437 1435 1433 1431 1429 1426 1424 1422 1421 1419 1417 1415 1413
1452 1450 1448 1445 1443 1441 1439 1437 1435 1433 1431 1429 1427 1425 1423 1421 1419 1417 1415 1413 1412 1411
1450 1448 1446 1444 1442 1439 1436 1434 1431 1429 1427 1425 1424 1423 1421 1419 1416 1414 1412 1410 1408 1406
1446 1444 1443 1441 1439 1436 1433 1431 1428 1427 1425 1423 1422 1419 1418 1416 1413 1410 1406 1404 1401 1400